{"data":{"norad_id":61581,"intl_designator":"2024-187H","name":"STARLINK-11374 [DTC]","alt_names":[],"object_type":"PAYLOAD","status":"ACTIVE","operator":null,"country":"US","launch_date":"2024-10-18","launch_site_code":"AFETR","launch_vehicle":null,"mission":null,"orbit_class":"UNKNOWN","rcs_meters":null,"size_class":null,"mass_kg":null,"dimensions":null,"purposes":["comms"],"wikipedia_slug":null,"has_3d_model":false,"image_url":null,"decayed_at":null,"tle_current":{"epoch":"2026-09-21T15:40:07.940352Z","epoch_age_seconds":92570,"freshness":"FRESH","line1":"1 61581U 24187H   26264.65286968  .00000316  00000+0  74597-5 0  9999","line2":"2 61581  53.1586  50.5847 0000792 111.0224 249.0878 15.69706558111574","mean_motion":15.69706558,"eccentricity":7.92e-5,"inclination_deg":53.1586,"raan_deg":50.5847,"arg_perigee_deg":111.0224,"mean_anomaly_deg":249.0878,"bstar":7.4597e-6,"rev_number":11157,"period_min":91.736891373808,"perigee_km":359.20296053512,"apogee_km":360.27023971338,"semimajor_km":6737.8736001243,"source":"CELESTRAK","updated_at":"2026-09-22T09:00:49.391455Z"}}}